Location: Dehesa de la Cepeda
(40.6574°N, 4.3013°W)
Time: 19:45:07
(UTC+00:00)

Spot 2 Rocket - Pass Details

Date: 05 July 2020
Orbit: 757 x 772 km, 98.6° (Epoch: 06 August)

Event Time Altitude Azimuth Distance (km) Brightness Sun altitude
Exits shadow 21:16:43 17° 158° (SSE) 1,840 4.9 -13.4°
Maximum altitude 21:20:36 76° 75° (ENE) 796 3.5 -13.9°
Drops below altitude 10° 21:25:43 10° 350° (N) 2,321 6.9 -14.6°
Sets 21:28:02 0° 349° (N) 3,254 7.8 -14.9°
